date,time,DOY,Ta_1_1_1,RH_1_1_1,LWin_1_1_1,LWout_1_1_1,SWin_1_1_1,SWout_1_1_1,PPFD_1_1_1,SWC_1_1_1,Ts_1_1_1
[yyyy-mm-dd],[HH:MM],[ddd.ddd],[K],[%],[W+1m-2],[W+1m-2],[W+1m-2],[W+1m-2],[µmol+1m-2s-1],[m+3m-3],[K]
2013-01-12,00:30,12.020,277.95400000000001,99.974999999999980,-8.3376666666666672,-3.6946666666666670,-0.24199999999999999,-4.46666666666666601E-002,2.66666666666666658E-003,-9999.0,279.90999999999991
2013-01-12,01:00,12.041,278.08366666666666,99.975333333333310,-8.5289999999999981,-4.0336666666666670,-0.24466666666666670,-4.63333333333333444E-002,3.33333333333333322E-004,-9999.0,279.90999999999991
2013-01-12,01:30,12.062,278.19100000000003,99.976666666666631,-9.1243333333333325,-4.5580000000000007,-0.29199999999999993,-6.70000000000000040E-002,6.66666666666666644E-004,-9999.0,279.90999999999991
2013-01-12,02:00,12.083,278.43200000000007,99.977666666666636,-9.5223076923076935,-5.1753333333333327,-0.31333333333333335,-7.53333333333333355E-002,1.33333333333333329E-003,-9999.0,279.90999999999991
2013-01-12,02:30,12.104,278.64033333333339,99.976333333333301,-9999.0,-6.1616666666666671,-0.53433333333333322,-0.17366666666666666,1.00000000000000002E-003,-9999.0,279.90999999999991
2013-01-12,03:00,12.124,278.76266666666669,99.976666666666659,-9.9350000000000005,-6.0653333333333332,-0.63400000000000012,-0.14166666666666666,3.33333333333333322E-004,-9999.0,279.90999999999991
2013-01-12,03:30,12.145,278.91666666666669,99.977999999999994,-9.8537499999999998,-5.9636666666666658,-0.52533333333333321,-0.25100000000000000,1.33333333333333329E-003,-9999.0,279.90999999999991
2013-01-12,04:00,12.166,278.85866666666675,99.976666666666659,-9.5418181818181811,-5.2109999999999985,-0.47766666666666668,-0.24400000000000011,2.33333333333333353E-003,-9999.0,279.90999999999991
2013-01-12,04:30,12.187,278.88466666666670,99.961999999999975,-9.6487499999999979,-5.8639999999999999,-0.41666666666666669,-0.25233333333333330,6.66666666666666536E-004,-9999.0,279.90999999999991
2013-01-12,05:00,12.208,278.92966666666666,97.572333333333319,-9.8536363636363618,-9.0485714285714298,-0.65600000000000003,-0.58799999999999997,2.66666666666666658E-003,-9999.0,279.90999999999991
2013-01-12,05:30,12.229,278.75733333333341,94.742666666666622,-9.5135294117647060,-9.2843749999999989,-0.64733333333333321,-0.88300000000000023,0.0000000000000000,-9999.0,279.90999999999991
2013-01-12,06:00,12.249,277.91700000000009,93.923666666666662,-8.1133333333333333,-5.8578571428571431,-0.28800000000000003,-0.53433333333333333,1.66666666666666677E-003,-9999.0,279.90999999999991
2013-01-12,06:30,12.270,276.78333333333336,91.352666666666678,-8.1523333333333330,-9999.0,-0.18733333333333330,-0.36566666666666670,1.33333333333333329E-003,-9999.0,279.90999999999991
2013-01-12,07:00,12.291,276.18000000000006,90.486333333333320,-7.6523333333333312,-9999.0,3.16666666666666693E-002,-0.73900000000000010,1.66666666666666677E-003,-9999.0,279.90999999999991
2013-01-12,07:30,12.312,275.61166666666668,88.361999999999995,-7.0426666666666655,-9999.0,-0.22799999999999995,-6.16666666666666682E-002,9.20000000000000262E-002,-9999.0,279.90999999999991
2013-01-12,08:00,12.333,274.83100000000002,87.845000000000027,-6.0430000000000010,-9999.0,-0.19533333333333341,0.45200000000000001,2.7236666666666669,-9999.0,279.90999999999991
2013-01-12,08:30,12.354,273.88233333333341,85.489000000000004,-5.0949999999999998,-9999.0,1.1603333333333334,10.452000000000000,23.641999999999999,-9999.0,279.90999999999991
2013-01-12,09:00,12.374,272.71933333333328,79.963333333333338,-3.5386666666666660,-9999.0,6.4246666666666670,41.570333333333338,83.778999999999996,-9999.0,279.90999999999991
2013-01-12,09:30,12.395,271.90233333333339,79.249666666666670,-2.7280000000000002,-9999.0,9.1086666666666645,58.484333333333339,118.68966666666664,-9999.0,279.90999999999991
2013-01-12,10:00,12.416,271.35900000000004,81.380333333333326,-2.4159999999999995,-9999.0,6.9959999999999996,44.964666666666659,95.713333333333324,-9999.0,279.90999999999991
2013-01-12,10:30,12.437,270.52533333333332,81.047333333333327,-1.9823333333333331,-9999.0,9.2630000000000017,59.270666666666664,126.13466666666667,-9999.0,279.90999999999991
2013-01-12,11:00,12.458,269.83400000000000,78.321666666666673,-1.8486666666666669,-9999.0,11.150333333333332,71.708333333333314,152.60066666666665,-9999.0,279.90999999999991
2013-01-12,11:30,12.479,269.00466666666665,77.576999999999998,-1.2863333333333329,-9999.0,15.344333333333337,97.919999999999973,204.35499999999996,-9999.0,279.90999999999991
2013-01-12,12:00,12.499,268.48666666666674,77.922666666666657,-1.1916666666666669,-9999.0,15.233000000000001,96.745000000000019,202.00933333333336,-9999.0,279.90999999999991
2013-01-12,12:30,12.520,267.90833333333330,78.008666666666670,-0.96199999999999974,-9999.0,16.578333333333333,105.70033333333330,219.85366666666667,-9999.0,279.90999999999991
2013-01-12,13:00,12.541,267.58733333333339,77.322666666666663,-0.84033333333333338,-9999.0,18.108000000000001,114.38700000000000,235.04766666666669,-9999.0,279.90999999999991
2013-01-12,13:30,12.562,267.48833333333334,76.538333333333327,-1.1946666666666668,-9999.0,15.606333333333334,98.755666666666656,204.45899999999997,-9999.0,279.90999999999991
2013-01-12,14:00,12.583,267.44033333333334,76.665000000000006,-1.5950000000000002,-9999.0,12.901333333333332,82.249000000000009,171.01500000000001,-9999.0,279.90999999999991
2013-01-12,14:30,12.604,267.13900000000001,75.551999999999992,-1.4366666666666665,-9999.0,9.8009999999999966,62.739000000000004,131.19500000000002,-9999.0,279.90999999999991
2013-01-12,15:00,12.624,266.94166666666672,73.940333333333328,-1.8373333333333328,-9999.0,5.3003333333333336,33.921999999999997,73.466333333333310,-9999.0,279.90999999999991
2013-01-12,15:30,12.645,266.62033333333341,74.194333333333333,-1.9073333333333335,-9999.0,5.2869999999999999,34.052666666666667,72.132666666666665,-9999.0,279.90999999999991
2013-01-12,16:00,12.666,266.02533333333332,74.305666666666653,-1.4980000000000002,-9999.0,3.9996666666666658,26.285666666666668,56.546666666666674,-9999.0,279.90999999999991
2013-01-12,16:30,12.687,265.52633333333335,74.735333333333330,-1.4576666666666669,-9999.0,1.2536666666666667,8.1313333333333322,19.389999999999993,-9999.0,279.90999999999991
2013-01-12,17:00,12.708,265.14633333333336,75.559666666666672,-1.6480000000000004,-9999.0,6.53333333333333266E-002,0.69266666666666665,2.5676666666666672,-9999.0,279.90999999999991
2013-01-12,17:30,12.729,264.88200000000001,75.457000000000008,-1.6239999999999994,-9999.0,-0.11933333333333332,-0.81900000000000006,4.46666666666666740E-002,-9999.0,279.90999999999991
2013-01-12,18:00,12.749,264.63533333333334,75.292666666666662,-1.8556666666666664,-9999.0,-0.17433333333333334,-0.89200000000000002,1.03333333333333350E-002,-9999.0,279.90999999999991
2013-01-12,18:30,12.770,264.31500000000005,76.999333333333325,-1.9980000000000000,-9999.0,-0.24833333333333335,-0.89433333333333331,8.00000000000000017E-003,-9999.0,279.90999999999991
2013-01-12,19:00,12.791,263.93433333333337,81.154333333333312,-2.3430000000000004,-9999.0,-0.32566666666666666,-0.91433333333333333,5.33333333333333316E-003,-9999.0,279.90999999999991
2013-01-12,19:30,12.812,263.57366666666672,80.894999999999996,-2.2759999999999994,-9.4500000000000011,-0.30600000000000005,-0.90533333333333332,9.00000000000000105E-003,-9999.0,279.90999999999991
2013-01-12,20:00,12.833,263.30333333333328,76.535666666666657,-2.0863333333333332,-9999.0,-0.18266666666666664,-0.92933333333333346,7.33333333333333406E-003,-9999.0,279.90999999999991
2013-01-12,20:30,12.854,263.06400000000002,75.011333333333340,-2.0359999999999996,-9999.0,-0.18033333333333335,-0.97399999999999975,1.00000000000000019E-002,-9999.0,279.90999999999991
2013-01-12,21:00,12.874,262.95233333333329,74.552333333333351,-2.0479999999999996,-9999.0,-0.17033333333333336,-0.98066666666666691,8.33333333333333322E-003,-9999.0,279.90999999999991
2013-01-12,21:30,12.895,262.92000000000002,76.897000000000006,-2.4283333333333328,-9999.0,-0.26066666666666666,-0.98333333333333284,8.00000000000000017E-003,-9999.0,279.90999999999991
2013-01-12,22:00,12.916,262.71299999999997,80.696333333333314,-2.6309999999999998,-9999.0,-0.38733333333333325,-1.1110000000000000,1.10000000000000011E-002,-9999.0,279.90999999999991
2013-01-12,22:30,12.937,262.57833333333332,77.258999999999986,-2.3373333333333335,-9999.0,-0.25300000000000000,-0.98566666666666669,8.00000000000000190E-003,-9999.0,279.90999999999991
2013-01-12,23:00,12.958,262.41700000000003,76.142333333333326,-2.1206666666666667,-9999.0,-0.23466666666666669,-0.98299999999999976,9.66666666666666716E-003,-9999.0,279.90999999999991
2013-01-12,23:30,12.979,262.19733333333340,74.812666666666672,-1.9776666666666665,-9999.0,-0.24833333333333335,-0.98233333333333372,8.66666666666666627E-003,-9999.0,279.90999999999991
2013-01-13,00:00,13.000,262.00466666666659,75.284999999999997,-1.8029999999999999,-9999.0,-0.21666666666666673,-0.93700000000000017,1.26666666666666698E-002,-9999.0,279.90999999999991
